Time,TemperatureF,DewpointF,PressureIn,WindDirection,WindDirectionDegrees,WindSpeedMPH,WindSpeedGustMPH,Humidity,HourlyPrecipIn,Conditions,Clouds,dailyrainin,SoftwareType,DateUTC
2013-03-07 00:00:00,33.1,28.5,29.97,East,90,3.6,3.8,83,0.00,,---,0.00,VWS V14.00,2013-03-07 05:00:00,
2013-03-07 00:01:00,33.1,28.5,29.97,SSW,202,3.6,5.4,83,0.00,,---,0.00,VWS V14.00,2013-03-07 05:01:00,
2013-03-07 00:06:00,33.1,27.9,29.97,NE,45,7.6,10.1,81,0.00,,---,0.00,VWS V14.00,2013-03-07 05:06:00,
2013-03-07 00:11:00,33.1,27.6,29.97,WNW,292,4.9,5.8,80,0.00,,---,0.00,VWS V14.00,2013-03-07 05:11:00,
2013-03-07 00:16:00,33.3,27.8,29.97,North,0,2.9,4.0,80,0.00,,---,0.00,VWS V14.00,2013-03-07 05:16:00,
2013-03-07 00:21:00,33.3,27.5,29.97,NW,315,4.9,12.1,79,0.00,,---,0.00,VWS V14.00,2013-03-07 05:21:00,
2013-03-07 00:26:00,33.3,27.5,29.97,NE,45,11.4,11.9,79,0.00,,---,0.00,VWS V14.00,2013-03-07 05:26:00,
2013-03-07 00:31:00,33.3,27.5,29.97,North,0,3.4,3.6,79,0.00,,---,0.00,VWS V14.00,2013-03-07 05:31:00,
2013-03-07 00:36:00,33.1,27.3,29.97,East,90,2.9,2.9,79,0.00,,---,0.00,VWS V14.00,2013-03-07 05:36:00,
2013-03-07 00:40:00,32.9,27.7,29.97,East,90,5.8,5.8,81,0.00,,---,0.00,VWS V14.00,2013-03-07 05:40:00,
2013-03-07 00:45:00,32.9,27.7,29.97,NW,315,5.8,5.8,81,0.00,,---,0.00,VWS V14.00,2013-03-07 05:45:00,
2013-03-07 00:51:00,32.9,27.7,29.97,NNE,22,5.4,9.6,81,0.00,,---,0.00,VWS V14.00,2013-03-07 05:51:00,
2013-03-07 00:56:00,32.9,27.4,29.97,NW,315,1.6,4.7,80,0.00,,---,0.00,VWS V14.00,2013-03-07 05:56:00,
2013-03-07 01:01:00,32.9,27.4,29.97,ENE,68,4.0,4.9,80,0.00,,---,0.00,VWS V14.00,2013-03-07 06:01:00,
2013-03-07 01:06:00,32.9,27.1,29.97,NNW,338,6.0,6.0,79,0.00,,---,0.00,VWS V14.00,2013-03-07 06:06:00,
2013-03-07 01:10:00,32.9,27.1,29.97,NE,45,2.7,4.3,79,0.00,,---,0.00,VWS V14.00,2013-03-07 06:10:00,
2013-03-07 01:15:00,32.9,27.4,29.97,ENE,68,10.3,10.3,80,0.00,,---,0.00,VWS V14.00,2013-03-07 06:15:00,
2013-03-07 01:20:00,32.9,27.1,29.97,East,90,3.4,6.0,79,0.00,,---,0.00,VWS V14.00,2013-03-07 06:20:00,
2013-03-07 01:25:00,32.7,27.2,29.97,NW,315,2.0,3.1,80,0.00,,---,0.00,VWS V14.00,2013-03-07 06:25:00,
2013-03-07 01:30:00,32.7,27.2,29.97,NNE,22,4.0,4.0,80,0.00,,---,0.00,VWS V14.00,2013-03-07 06:30:00,
2013-03-07 01:35:00,32.7,27.2,29.97,NE,45,7.6,13.2,80,0.00,,---,0.00,VWS V14.00,2013-03-07 06:35:00,
2013-03-07 01:40:00,32.5,27.1,29.97,ENE,68,3.8,3.8,80,0.00,,---,0.00,VWS V14.00,2013-03-07 06:40:00,
2013-03-07 01:45:00,32.5,27.4,29.97,SSE,158,3.4,5.6,81,0.00,,---,0.00,VWS V14.00,2013-03-07 06:45:00,
2013-03-07 01:50:00,32.4,27.2,29.97,NE,45,3.4,3.4,81,0.00,,---,0.00,VWS V14.00,2013-03-07 06:50:00,
2013-03-07 01:55:00,32.4,27.2,29.94,NNW,338,5.8,5.8,81,0.00,,---,0.00,VWS V14.00,2013-03-07 06:55:00,
2013-03-07 02:00:00,32.4,27.2,29.94,NNE,22,6.0,6.0,81,0.00,,---,0.00,VWS V14.00,2013-03-07 07:00:00,
2013-03-07 02:05:00,32.2,27.0,29.94,NE,45,4.0,7.8,81,0.00,,---,0.00,VWS V14.00,2013-03-07 07:05:00,
2013-03-07 02:10:00,32.2,27.0,29.94,SE,135,3.6,7.2,81,0.00,,---,0.00,VWS V14.00,2013-03-07 07:10:00,
2013-03-07 02:15:00,32.2,27.3,29.94,NE,45,6.5,6.5,82,0.00,,---,0.00,VWS V14.00,2013-03-07 07:15:00,
2013-03-07 02:20:00,32.0,27.1,29.94,ENE,68,3.1,5.4,82,0.00,,---,0.00,VWS V14.00,2013-03-07 07:20:00,
2013-03-07 02:25:00,32.0,27.1,29.94,North,0,4.0,5.6,82,0.00,,---,0.00,VWS V14.00,2013-03-07 07:25:00,
2013-03-07 02:30:00,31.8,27.0,29.94,ENE,68,2.0,6.0,82,0.00,,---,0.00,VWS V14.00,2013-03-07 07:30:00,
2013-03-07 02:35:00,31.8,27.0,29.94,ESE,112,3.8,3.8,82,0.00,,---,0.00,VWS V14.00,2013-03-07 07:35:00,
2013-03-07 02:40:00,31.8,27.0,29.94,NE,45,10.5,10.5,82,0.00,,---,0.00,VWS V14.00,2013-03-07 07:40:00,
2013-03-07 02:46:00,31.8,27.0,29.94,SW,225,2.0,6.5,82,0.00,,---,0.00,VWS V14.00,2013-03-07 07:46:00,
2013-03-07 02:51:00,31.8,26.7,29.94,South,180,2.5,8.1,81,0.00,,---,0.00,VWS V14.00,2013-03-07 07:51:00,
2013-03-07 02:56:00,31.6,26.8,29.94,North,0,2.7,11.9,82,0.00,,---,0.00,VWS V14.00,2013-03-07 07:56:00,
2013-03-07 03:01:00,31.6,26.8,29.94,NE,45,4.9,6.0,82,0.00,,---,0.00,VWS V14.00,2013-03-07 08:01:00,
2013-03-07 03:06:00,31.5,26.9,29.94,ENE,68,8.5,10.5,83,0.00,,---,0.00,VWS V14.00,2013-03-07 08:06:00,
2013-03-07 03:11:00,31.5,26.9,29.94,NE,45,3.6,3.6,83,0.00,,---,0.00,VWS V14.00,2013-03-07 08:11:00,
2013-03-07 03:16:00,31.3,27.0,29.94,NW,315,4.7,6.9,84,0.00,,---,0.00,VWS V14.00,2013-03-07 08:16:00,
2013-03-07 03:21:00,31.3,27.0,29.94,NE,45,3.4,3.4,84,0.00,,---,0.00,VWS V14.00,2013-03-07 08:21:00,
2013-03-07 03:26:00,31.1,27.1,29.94,NE,45,3.4,3.6,85,0.00,,---,0.00,VWS V14.00,2013-03-07 08:26:00,
2013-03-07 03:31:00,31.1,27.1,29.94,ENE,68,2.9,6.5,85,0.00,,---,0.00,VWS V14.00,2013-03-07 08:31:00,
2013-03-07 03:36:00,31.1,27.4,29.94,NE,45,3.1,3.6,86,0.00,,---,0.00,VWS V14.00,2013-03-07 08:36:00,
2013-03-07 03:41:00,31.1,27.4,29.94,ENE,68,2.5,4.9,86,0.00,,---,0.00,VWS V14.00,2013-03-07 08:41:00,
2013-03-07 03:46:00,30.9,27.2,29.94,West,270,8.5,8.5,86,0.00,,---,0.00,VWS V14.00,2013-03-07 08:46:00,
2013-03-07 03:51:00,30.9,27.2,29.94,NNE,22,2.7,3.8,86,0.00,,---,0.00,VWS V14.00,2013-03-07 08:51:00,
2013-03-07 03:56:00,30.9,27.2,29.94,WSW,248,1.1,2.7,86,0.00,,---,0.00,VWS V14.00,2013-03-07 08:56:00,
2013-03-07 04:01:00,30.9,27.2,29.94,NNE,22,3.1,6.3,86,0.00,,---,0.00,VWS V14.00,2013-03-07 09:01:00,
2013-03-07 04:06:00,30.9,27.2,29.94,South,180,2.7,2.9,86,0.00,,---,0.00,VWS V14.00,2013-03-07 09:06:00,
2013-03-07 04:11:00,30.7,27.3,29.97,WNW,292,1.6,4.7,87,0.00,,---,0.00,VWS V14.00,2013-03-07 09:11:00,
2013-03-07 04:16:00,30.7,27.3,29.97,West,270,2.7,4.5,87,0.00,,---,0.00,VWS V14.00,2013-03-07 09:16:00,
2013-03-07 04:21:00,30.7,27.3,29.97,NNW,338,1.6,1.6,87,0.00,,---,0.00,VWS V14.00,2013-03-07 09:21:00,
2013-03-07 04:26:00,30.6,27.2,29.97,NE,45,2.9,3.6,87,0.00,,---,0.00,VWS V14.00,2013-03-07 09:26:00,
2013-03-07 04:31:00,30.6,27.2,29.97,NNE,22,3.1,3.6,87,0.00,,---,0.00,VWS V14.00,2013-03-07 09:31:00,
2013-03-07 04:36:00,30.4,27.3,29.97,ENE,68,5.6,5.6,88,0.00,,---,0.00,VWS V14.00,2013-03-07 09:36:00,
2013-03-07 04:41:00,30.4,27.3,29.94,NE,45,2.0,2.7,88,0.00,,---,0.00,VWS V14.00,2013-03-07 09:41:00,
2013-03-07 04:46:00,30.4,27.3,29.94,NNE,22,6.5,6.5,88,0.00,,---,0.00,VWS V14.00,2013-03-07 09:46:00,
2013-03-07 04:51:00,30.4,27.3,29.94,NW,315,10.7,10.7,88,0.00,,---,0.00,VWS V14.00,2013-03-07 09:51:00,
2013-03-07 04:56:00,30.4,27.3,29.94,North,0,3.1,3.1,88,0.00,,---,0.00,VWS V14.00,2013-03-07 09:56:00,
2013-03-07 05:01:00,30.2,27.4,29.94,WNW,292,2.5,3.6,89,0.00,,---,0.00,VWS V14.00,2013-03-07 10:01:00,
2013-03-07 05:06:00,30.2,27.4,29.94,NE,45,2.0,2.9,89,0.00,,---,0.00,VWS V14.00,2013-03-07 10:06:00,
2013-03-07 05:11:00,30.2,27.4,29.97,NNE,22,3.1,3.1,89,0.00,,---,0.00,VWS V14.00,2013-03-07 10:11:00,
2013-03-07 05:16:00,30.2,27.4,29.97,NE,45,7.8,7.8,89,0.00,,---,0.00,VWS V14.00,2013-03-07 10:16:00,
2013-03-07 05:21:00,30.2,27.4,29.97,NNE,22,3.6,4.3,89,0.00,,---,0.00,VWS V14.00,2013-03-07 10:21:00,
2013-03-07 05:26:00,30.0,27.2,29.97,NE,45,1.6,4.5,89,0.00,,---,0.00,VWS V14.00,2013-03-07 10:26:00,
2013-03-07 05:31:00,30.2,27.1,29.97,North,0,2.5,3.1,88,0.00,,---,0.00,VWS V14.00,2013-03-07 10:31:00,
2013-03-07 05:36:00,30.2,27.1,29.97,North,0,4.0,4.0,88,0.00,,---,0.00,VWS V14.00,2013-03-07 10:36:00,
2013-03-07 05:41:00,30.2,26.5,29.97,WNW,292,2.9,2.9,86,0.00,,---,0.00,VWS V14.00,2013-03-07 10:41:00,
2013-03-07 05:46:00,30.4,26.4,29.97,SE,135,1.1,1.3,85,0.00,,---,0.00,VWS V14.00,2013-03-07 10:46:00,
2013-03-07 05:51:00,30.4,26.1,29.97,East,90,1.3,2.7,84,0.00,,---,0.00,VWS V14.00,2013-03-07 10:51:00,
2013-03-07 05:56:00,30.4,25.9,29.97,NE,45,6.5,6.5,83,0.00,,---,0.00,VWS V14.00,2013-03-07 10:56:00,
2013-03-07 06:01:00,30.4,25.5,29.97,NE,45,3.6,6.3,82,0.00,,---,0.00,VWS V14.00,2013-03-07 11:01:00,
2013-03-07 06:06:00,30.4,25.3,29.97,NE,45,1.1,2.7,81,0.00,,---,0.00,VWS V14.00,2013-03-07 11:06:00,
2013-03-07 06:11:00,30.4,25.3,29.97,NE,45,2.7,2.7,81,0.00,,---,0.00,VWS V14.00,2013-03-07 11:11:00,
2013-03-07 06:16:00,30.6,24.8,29.97,NW,315,3.1,6.0,79,0.00,,---,0.00,VWS V14.00,2013-03-07 11:16:00,
2013-03-07 06:21:00,30.6,24.8,29.97,NE,45,4.9,4.9,79,0.00,,---,0.00,VWS V14.00,2013-03-07 11:21:00,
2013-03-07 06:26:00,30.6,24.5,29.97,NE,45,3.1,6.3,78,0.00,,---,0.00,VWS V14.00,2013-03-07 11:26:00,
2013-03-07 06:31:00,30.7,24.4,29.97,NE,45,3.1,6.3,77,0.00,,---,0.00,VWS V14.00,2013-03-07 11:31:00,
2013-03-07 06:36:00,30.9,24.6,29.97,NE,45,1.1,2.0,77,0.00,,---,0.00,VWS V14.00,2013-03-07 11:36:00,
2013-03-07 06:41:00,30.9,24.6,29.97,NE,45,5.8,5.8,77,0.00,,---,0.00,VWS V14.00,2013-03-07 11:41:00,
2013-03-07 06:46:00,30.9,24.6,29.97,East,90,1.3,2.2,77,0.00,,---,0.00,VWS V14.00,2013-03-07 11:46:00,
2013-03-07 06:51:00,31.1,24.8,29.97,NNW,338,1.6,4.0,77,0.00,,---,0.00,VWS V14.00,2013-03-07 11:51:00,
2013-03-07 06:56:00,30.9,24.9,29.97,NE,45,3.1,5.4,78,0.00,,---,0.00,VWS V14.00,2013-03-07 11:56:00,
2013-03-07 07:01:00,30.7,25.0,29.97,North,0,3.4,3.4,79,0.00,,---,0.00,VWS V14.00,2013-03-07 12:01:00,
2013-03-07 07:06:00,30.6,25.1,29.97,NNE,22,3.6,3.6,80,0.00,,---,0.00,VWS V14.00,2013-03-07 12:06:00,
2013-03-07 07:11:00,30.4,25.3,29.97,NE,45,3.1,7.2,81,0.00,,---,0.00,VWS V14.00,2013-03-07 12:11:00,
2013-03-07 07:16:00,30.2,25.7,29.97,ENE,68,2.9,4.3,83,0.00,,---,0.00,VWS V14.00,2013-03-07 12:16:00,
2013-03-07 07:21:00,30.2,26.0,29.97,NE,45,3.8,3.8,84,0.00,,---,0.00,VWS V14.00,2013-03-07 12:21:00,
2013-03-07 07:26:00,30.2,26.0,29.97,NE,45,2.9,3.4,84,0.00,,---,0.00,VWS V14.00,2013-03-07 12:26:00,
2013-03-07 07:31:00,30.0,26.1,29.97,NE,45,2.7,6.9,85,0.00,,---,0.00,VWS V14.00,2013-03-07 12:31:00,
2013-03-07 07:36:00,30.2,26.5,29.97,SW,225,2.7,3.4,86,0.00,,---,0.00,VWS V14.00,2013-03-07 12:36:00,
2013-03-07 07:41:00,30.2,26.5,29.97,NE,45,2.5,5.6,86,0.00,,---,0.00,VWS V14.00,2013-03-07 12:41:00,
2013-03-07 07:46:00,30.2,26.5,29.97,NW,315,3.4,3.8,86,0.00,,---,0.00,VWS V14.00,2013-03-07 12:46:00,
2013-03-07 07:51:00,30.2,26.5,29.97,ENE,68,2.9,3.8,86,0.00,,---,0.00,VWS V14.00,2013-03-07 12:51:00,
2013-03-07 07:56:00,30.4,26.7,30.00,NNE,22,0.0,1.6,86,0.00,,---,0.00,VWS V14.00,2013-03-07 12:56:00,
2013-03-07 08:01:00,30.4,26.7,30.00,WNW,292,6.0,6.0,86,0.00,,---,0.00,VWS V14.00,2013-03-07 13:01:00,
2013-03-07 08:06:00,30.4,26.7,30.00,NW,315,3.8,5.4,86,0.00,,---,0.00,VWS V14.00,2013-03-07 13:06:00,
2013-03-07 08:11:00,30.4,26.7,29.97,NE,45,3.6,3.6,86,0.00,,---,0.00,VWS V14.00,2013-03-07 13:11:00,
2013-03-07 08:16:00,30.6,26.9,29.97,NW,315,2.7,4.0,86,0.00,,---,0.00,VWS V14.00,2013-03-07 13:16:00,
2013-03-07 08:21:00,31.1,27.4,29.97,NE,45,1.6,4.0,86,0.00,,---,0.00,VWS V14.00,2013-03-07 13:21:00,
2013-03-07 08:26:00,31.5,27.8,29.97,NW,315,1.3,2.5,86,0.00,,---,0.00,VWS V14.00,2013-03-07 13:26:00,
2013-03-07 08:31:00,32.2,28.2,29.97,WNW,292,3.6,3.8,85,0.00,,---,0.00,VWS V14.00,2013-03-07 13:31:00,
2013-03-07 08:36:00,32.5,27.7,29.97,ENE,68,4.9,5.6,82,0.00,,---,0.00,VWS V14.00,2013-03-07 13:36:00,
2013-03-07 08:41:00,32.9,27.7,29.97,NE,45,1.3,2.5,81,0.00,,---,0.00,VWS V14.00,2013-03-07 13:41:00,
2013-03-07 08:46:00,33.4,27.6,29.97,NW,315,3.6,3.6,79,0.00,,---,0.00,VWS V14.00,2013-03-07 13:46:00,
2013-03-07 08:51:00,33.8,27.4,29.97,West,270,3.4,3.6,77,0.00,,---,0.00,VWS V14.00,2013-03-07 13:51:00,
2013-03-07 08:56:00,34.0,26.9,30.00,NE,45,3.8,7.8,75,0.00,,---,0.00,VWS V14.00,2013-03-07 13:56:00,
2013-03-07 09:01:00,34.0,26.2,30.00,ENE,68,2.2,5.4,73,0.00,,---,0.00,VWS V14.00,2013-03-07 14:01:00,
2013-03-07 09:06:00,34.3,26.3,30.00,East,90,2.5,4.3,72,0.00,,---,0.00,VWS V14.00,2013-03-07 14:06:00,
2013-03-07 09:11:00,34.3,26.3,29.97,NNW,338,3.4,6.3,72,0.00,,---,0.00,VWS V14.00,2013-03-07 14:11:00,
2013-03-07 09:16:00,34.3,25.9,29.97,ENE,68,1.3,3.4,71,0.00,,---,0.00,VWS V14.00,2013-03-07 14:16:00,
2013-03-07 09:21:00,34.7,26.3,29.97,East,90,2.0,3.8,71,0.00,,---,0.00,VWS V14.00,2013-03-07 14:21:00,
2013-03-07 09:26:00,35.1,26.3,29.97,NE,45,3.1,4.7,70,0.00,,---,0.00,VWS V14.00,2013-03-07 14:26:00,
2013-03-07 09:31:00,35.2,26.1,29.97,East,90,2.5,2.9,69,0.00,,---,0.00,VWS V14.00,2013-03-07 14:31:00,
2013-03-07 09:36:00,35.6,25.7,29.97,NE,45,3.1,3.1,67,0.00,,---,0.00,VWS V14.00,2013-03-07 14:36:00,
2013-03-07 09:41:00,35.4,24.8,29.97,NE,45,4.0,12.1,65,0.00,,---,0.00,VWS V14.00,2013-03-07 14:41:00,
2013-03-07 09:46:00,35.8,25.2,29.97,NW,315,3.8,3.8,65,0.00,,---,0.00,VWS V14.00,2013-03-07 14:46:00,
2013-03-07 09:51:00,35.6,24.6,29.97,South,180,2.7,3.8,64,0.00,,---,0.00,VWS V14.00,2013-03-07 14:51:00,
2013-03-07 09:56:00,35.8,24.8,29.97,ENE,68,2.9,4.3,64,0.00,,---,0.00,VWS V14.00,2013-03-07 14:56:00,
2013-03-07 10:01:00,35.8,24.4,29.97,NNE,22,3.8,6.3,63,0.00,,---,0.00,VWS V14.00,2013-03-07 15:01:00,
2013-03-07 10:06:00,36.0,25.0,29.97,ESE,112,1.3,2.9,64,0.00,,---,0.00,VWS V14.00,2013-03-07 15:06:00,
2013-03-07 10:12:00,36.1,24.8,29.97,North,0,3.4,6.3,63,0.00,,---,0.00,VWS V14.00,2013-03-07 15:12:00,
2013-03-07 10:17:00,36.0,24.2,29.97,South,180,2.7,5.4,62,0.00,,---,0.00,VWS V14.00,2013-03-07 15:17:00,
2013-03-07 10:22:00,36.1,24.8,29.97,NE,45,1.1,2.0,63,0.00,,---,0.00,VWS V14.00,2013-03-07 15:22:00,
2013-03-07 10:27:00,36.3,25.0,29.97,ENE,68,1.3,3.4,63,0.00,,---,0.00,VWS V14.00,2013-03-07 15:27:00,
2013-03-07 10:32:00,36.3,24.6,29.97,NE,45,6.5,6.5,62,0.00,,---,0.00,VWS V14.00,2013-03-07 15:32:00,
2013-03-07 10:37:00,36.3,24.6,29.97,NE,45,5.6,7.8,62,0.00,,---,0.00,VWS V14.00,2013-03-07 15:37:00,
2013-03-07 10:42:00,37.0,25.2,29.97,ENE,68,3.1,3.1,62,0.00,,---,0.00,VWS V14.00,2013-03-07 15:42:00,
2013-03-07 10:47:00,37.0,24.5,29.97,East,90,4.9,6.5,60,0.00,,---,0.00,VWS V14.00,2013-03-07 15:47:00,
2013-03-07 10:52:00,37.0,24.9,29.97,East,90,2.9,3.6,61,0.00,,---,0.00,VWS V14.00,2013-03-07 15:52:00,
2013-03-07 10:57:00,37.0,24.5,30.00,North,0,2.9,2.9,60,0.00,,---,0.00,VWS V14.00,2013-03-07 15:57:00,
2013-03-07 11:02:00,37.0,24.5,30.00,West,270,4.0,4.7,60,0.00,,---,0.00,VWS V14.00,2013-03-07 16:02:00,
2013-03-07 11:07:00,36.7,23.7,30.00,NE,45,5.4,5.4,59,0.00,,---,0.00,VWS V14.00,2013-03-07 16:07:00,
2013-03-07 11:12:00,37.0,24.5,29.97,North,0,1.1,1.1,60,0.00,,---,0.00,VWS V14.00,2013-03-07 16:12:00,
2013-03-07 11:17:00,37.2,24.2,29.97,NNW,338,3.8,5.8,59,0.00,,---,0.00,VWS V14.00,2013-03-07 16:17:00,
2013-03-07 11:22:00,37.8,24.7,29.97,NE,45,4.9,4.9,59,0.00,,---,0.00,VWS V14.00,2013-03-07 16:22:00,
2013-03-07 11:27:00,37.8,24.3,30.00,NNW,338,2.9,2.9,58,0.00,,---,0.00,VWS V14.00,2013-03-07 16:27:00,
2013-03-07 11:32:00,37.8,24.3,30.00,NE,45,2.5,3.1,58,0.00,,---,0.00,VWS V14.00,2013-03-07 16:32:00,
2013-03-07 11:37:00,37.4,24.0,30.00,NE,45,4.9,6.5,58,0.00,,---,0.00,VWS V14.00,2013-03-07 16:37:00,
2013-03-07 11:42:00,37.4,24.0,29.97,ENE,68,1.6,1.6,58,0.00,,---,0.00,VWS V14.00,2013-03-07 16:42:00,
2013-03-07 11:47:00,37.0,24.1,29.97,NNE,22,2.9,2.9,59,0.00,,---,0.00,VWS V14.00,2013-03-07 16:47:00,
2013-03-07 11:52:00,36.9,23.9,29.97,WSW,248,2.9,2.9,59,0.00,,---,0.00,VWS V14.00,2013-03-07 16:52:00,
2013-03-07 11:57:00,37.2,24.2,29.97,NE,45,4.9,4.9,59,0.00,,---,0.00,VWS V14.00,2013-03-07 16:57:00,
2013-03-07 12:02:00,37.4,24.4,29.97,NE,45,4.0,4.0,59,0.00,,---,0.00,VWS V14.00,2013-03-07 17:02:00,
2013-03-07 12:07:00,36.9,24.3,29.97,ENE,68,2.7,2.7,60,0.00,,---,0.00,VWS V14.00,2013-03-07 17:07:00,
2013-03-07 12:12:00,36.9,24.7,29.97,NNW,338,4.0,5.4,61,0.00,,---,0.00,VWS V14.00,2013-03-07 17:12:00,
2013-03-07 12:17:00,37.0,24.9,29.97,NE,45,2.9,2.9,61,0.00,,---,0.00,VWS V14.00,2013-03-07 17:17:00,
2013-03-07 12:22:00,37.4,25.2,29.97,ENE,68,2.5,5.8,61,0.00,,---,0.00,VWS V14.00,2013-03-07 17:22:00,
2013-03-07 12:27:00,37.2,24.6,30.00,NE,45,2.9,2.9,60,0.00,,---,0.00,VWS V14.00,2013-03-07 17:27:00,
2013-03-07 12:32:00,37.2,24.6,30.00,NNE,22,4.0,6.3,60,0.00,,---,0.00,VWS V14.00,2013-03-07 17:32:00,
2013-03-07 12:37:00,37.4,25.2,30.00,NNW,338,2.5,2.5,61,0.00,,---,0.00,VWS V14.00,2013-03-07 17:37:00,
2013-03-07 12:42:00,37.4,25.2,29.97,South,180,2.7,3.4,61,0.00,,---,0.00,VWS V14.00,2013-03-07 17:42:00,
2013-03-07 12:47:00,37.6,25.4,29.97,NW,315,4.9,4.9,61,0.00,,---,0.00,VWS V14.00,2013-03-07 17:47:00,
2013-03-07 12:52:00,37.4,24.8,29.97,East,90,4.0,4.0,60,0.00,,---,0.00,VWS V14.00,2013-03-07 17:52:00,
2013-03-07 12:57:00,37.9,25.7,29.97,East,90,2.7,4.0,61,0.00,,---,0.00,VWS V14.00,2013-03-07 17:57:00,
2013-03-07 13:02:00,37.8,25.5,29.97,NE,45,3.6,4.0,61,0.00,,---,0.00,VWS V14.00,2013-03-07 18:02:00,
2013-03-07 13:07:00,37.6,25.4,29.97,NE,45,2.5,3.4,61,0.00,,---,0.00,VWS V14.00,2013-03-07 18:07:00,
2013-03-07 13:12:00,37.6,25.8,29.97,NE,45,5.4,9.4,62,0.00,,---,0.00,VWS V14.00,2013-03-07 18:12:00,
2013-03-07 13:17:00,38.3,26.0,29.97,North,0,1.1,3.4,61,0.00,,---,0.00,VWS V14.00,2013-03-07 18:17:00,
2013-03-07 13:22:00,38.3,26.4,29.97,West,270,2.5,2.9,62,0.00,,---,0.00,VWS V14.00,2013-03-07 18:22:00,
2013-03-07 13:27:00,37.9,26.5,29.97,NE,45,1.1,3.4,63,0.00,,---,0.00,VWS V14.00,2013-03-07 18:27:00,
2013-03-07 13:32:00,38.1,26.6,29.97,NE,45,2.9,2.9,63,0.00,,---,0.00,VWS V14.00,2013-03-07 18:32:00,
2013-03-07 13:37:00,38.1,26.6,29.97,WNW,292,1.1,2.0,63,0.00,,---,0.00,VWS V14.00,2013-03-07 18:37:00,
2013-03-07 13:42:00,38.1,27.4,29.97,NE,45,3.1,5.4,65,0.00,,---,0.00,VWS V14.00,2013-03-07 18:42:00,
2013-03-07 13:47:00,37.8,27.1,29.97,ENE,68,0.0,4.3,65,0.00,,---,0.00,VWS V14.00,2013-03-07 18:47:00,
2013-03-07 13:52:00,37.9,27.6,29.97,East,90,4.5,6.3,66,0.00,,---,0.00,VWS V14.00,2013-03-07 18:52:00,
2013-03-07 13:57:00,37.9,27.6,29.97,NNW,338,3.1,4.3,66,0.00,,---,0.00,VWS V14.00,2013-03-07 18:57:00,
2013-03-07 14:02:00,38.1,27.4,29.97,WNW,292,1.3,5.6,65,0.00,,---,0.00,VWS V14.00,2013-03-07 19:02:00,
2013-03-07 14:06:00,38.1,27.4,29.97,NE,45,4.0,4.0,65,0.00,,---,0.00,VWS V14.00,2013-03-07 19:06:00,
2013-03-07 14:11:00,38.1,27.4,29.97,North,0,2.5,2.5,65,0.00,,---,0.00,VWS V14.00,2013-03-07 19:11:00,
2013-03-07 14:16:00,38.1,27.0,29.97,NW,315,1.1,2.9,64,0.00,,---,0.00,VWS V14.00,2013-03-07 19:16:00,
2013-03-07 14:21:00,37.8,27.4,29.97,ENE,68,0.0,2.5,66,0.00,,---,0.00,VWS V14.00,2013-03-07 19:21:00,
2013-03-07 14:27:00,37.8,27.4,29.97,WNW,292,2.9,2.9,66,0.00,,---,0.00,VWS V14.00,2013-03-07 19:27:00,
2013-03-07 14:32:00,37.4,28.2,29.97,SW,225,3.1,3.1,69,0.04,,---,0.04,VWS V14.00,2013-03-07 19:32:00,
2013-03-07 14:37:00,37.4,28.5,29.97,ESE,112,1.3,2.2,70,0.04,,---,0.04,VWS V14.00,2013-03-07 19:37:00,
2013-03-07 14:42:00,37.4,28.9,29.97,NNE,22,1.6,2.2,71,0.04,,---,0.04,VWS V14.00,2013-03-07 19:42:00,
2013-03-07 14:47:00,37.9,29.4,29.97,NW,315,3.8,3.8,71,0.04,,---,0.04,VWS V14.00,2013-03-07 19:47:00,
2013-03-07 14:52:00,37.9,29.0,29.97,East,90,3.8,3.8,70,0.04,,---,0.04,VWS V14.00,2013-03-07 19:52:00,
2013-03-07 14:57:00,37.2,28.7,29.97,NE,45,2.0,3.6,71,0.04,,---,0.04,VWS V14.00,2013-03-07 19:57:00,
2013-03-07 15:02:00,36.7,28.2,29.97,NE,45,1.1,3.4,71,0.04,,---,0.04,VWS V14.00,2013-03-07 20:02:00,
2013-03-07 15:07:00,36.7,28.5,29.97,NW,315,0.9,1.6,72,0.04,,---,0.04,VWS V14.00,2013-03-07 20:07:00,
2013-03-07 15:12:00,36.5,28.7,29.97,NNE,22,0.9,2.9,73,0.00,,---,0.04,VWS V14.00,2013-03-07 20:12:00,
2013-03-07 15:17:00,36.7,28.9,29.97,NE,45,1.3,3.4,73,0.00,,---,0.04,VWS V14.00,2013-03-07 20:17:00,
2013-03-07 15:22:00,36.3,28.5,30.00,North,0,2.0,4.3,73,0.00,,---,0.04,VWS V14.00,2013-03-07 20:22:00,
2013-03-07 15:27:00,36.1,28.7,30.00,NE,45,2.0,2.2,74,0.00,,---,0.04,VWS V14.00,2013-03-07 20:27:00,
2013-03-07 15:32:00,36.0,28.5,30.00,North,0,2.5,5.4,74,0.00,,---,0.04,VWS V14.00,2013-03-07 20:32:00,
2013-03-07 15:37:00,36.1,29.0,30.00,NE,45,2.0,2.0,75,0.00,,---,0.04,VWS V14.00,2013-03-07 20:37:00,
2013-03-07 15:42:00,36.0,28.8,30.00,NE,45,1.6,2.9,75,0.00,,---,0.04,VWS V14.00,2013-03-07 20:42:00,
2013-03-07 15:47:00,35.8,28.6,30.00,NE,45,3.1,7.6,75,0.00,,---,0.04,VWS V14.00,2013-03-07 20:47:00,
2013-03-07 15:52:00,35.8,28.3,30.00,ENE,68,2.0,2.9,74,0.00,,---,0.04,VWS V14.00,2013-03-07 20:52:00,
2013-03-07 15:58:00,35.8,28.3,30.00,NE,45,0.0,2.7,74,0.00,,---,0.04,VWS V14.00,2013-03-07 20:58:00,
2013-03-07 16:02:00,35.6,28.5,30.00,NNE,22,1.6,1.6,75,0.00,,---,0.04,VWS V14.00,2013-03-07 21:02:00,
2013-03-07 16:07:00,35.4,28.6,30.00,ESE,112,0.0,2.2,76,0.00,,---,0.04,VWS V14.00,2013-03-07 21:07:00,
2013-03-07 16:13:00,34.9,28.4,30.00,NNW,338,1.3,2.5,77,0.00,,---,0.04,VWS V14.00,2013-03-07 21:13:00,
2013-03-07 16:18:00,34.5,28.4,30.00,East,90,1.3,1.3,78,0.00,,---,0.04,VWS V14.00,2013-03-07 21:18:00,
2013-03-07 16:23:00,34.5,28.4,29.97,NE,45,0.0,2.2,78,0.00,,---,0.04,VWS V14.00,2013-03-07 21:23:00,
2013-03-07 16:28:00,34.3,28.5,29.97,North,0,1.3,1.3,79,0.00,,---,0.04,VWS V14.00,2013-03-07 21:28:00,
2013-03-07 16:33:00,34.0,28.2,29.97,SW,225,0.0,0.0,79,0.00,,---,0.04,VWS V14.00,2013-03-07 21:33:00,
2013-03-07 16:38:00,33.6,28.4,29.97,North,0,4.0,4.0,81,0.00,,---,0.04,VWS V14.00,2013-03-07 21:38:00,
2013-03-07 16:43:00,33.4,28.8,29.97,NE,45,2.0,2.0,83,0.00,,---,0.04,VWS V14.00,2013-03-07 21:43:00,
2013-03-07 16:48:00,33.3,28.7,29.97,NE,45,1.3,1.3,83,0.00,,---,0.04,VWS V14.00,2013-03-07 21:48:00,
2013-03-07 16:53:00,33.1,29.1,29.97,SW,225,3.1,3.1,85,0.00,,---,0.04,VWS V14.00,2013-03-07 21:53:00,
2013-03-07 16:58:00,32.9,29.2,29.97,WNW,292,0.0,2.0,86,0.00,,---,0.04,VWS V14.00,2013-03-07 21:58:00,
2013-03-07 17:03:00,32.7,29.0,29.97,ENE,68,0.9,0.9,86,0.00,,---,0.04,VWS V14.00,2013-03-07 22:03:00,
2013-03-07 17:08:00,32.7,29.0,30.00,ENE,68,1.3,2.9,86,0.00,,---,0.04,VWS V14.00,2013-03-07 22:08:00,
2013-03-07 17:13:00,32.5,28.8,30.00,ENE,68,0.0,0.0,86,0.00,,---,0.04,VWS V14.00,2013-03-07 22:13:00,
2013-03-07 17:18:00,32.4,28.6,30.00,NW,315,0.0,1.3,86,0.00,,---,0.04,VWS V14.00,2013-03-07 22:18:00,
2013-03-07 17:23:00,32.2,28.8,30.00,WSW,248,0.9,1.6,87,0.00,,---,0.04,VWS V14.00,2013-03-07 22:23:00,
2013-03-07 17:28:00,32.2,28.8,30.00,North,0,0.0,0.0,87,0.00,,---,0.04,VWS V14.00,2013-03-07 22:28:00,
2013-03-07 17:33:00,32.0,28.9,30.00,NE,45,2.0,2.0,88,0.00,,---,0.04,VWS V14.00,2013-03-07 22:33:00,
2013-03-07 17:38:00,31.8,28.7,30.00,North,0,2.2,2.2,88,0.00,,---,0.04,VWS V14.00,2013-03-07 22:38:00,
2013-03-07 17:43:00,31.6,28.8,30.00,NE,45,0.0,1.3,89,0.00,,---,0.04,VWS V14.00,2013-03-07 22:43:00,
2013-03-07 17:48:00,31.6,28.8,30.00,NE,45,1.1,2.5,89,0.00,,---,0.04,VWS V14.00,2013-03-07 22:48:00,
2013-03-07 17:53:00,31.5,28.6,30.00,North,0,0.9,1.1,89,0.00,,---,0.04,VWS V14.00,2013-03-07 22:53:00,
2013-03-07 17:58:00,31.3,28.4,30.00,North,0,1.3,1.3,89,0.00,,---,0.04,VWS V14.00,2013-03-07 22:58:00,
2013-03-07 18:03:00,31.3,28.4,30.00,NNE,22,0.0,0.0,89,0.00,,---,0.04,VWS V14.00,2013-03-07 23:03:00,
2013-03-07 18:08:00,31.1,28.5,30.00,NNE,22,2.0,2.0,90,0.00,,---,0.04,VWS V14.00,2013-03-07 23:08:00,
2013-03-07 18:13:00,31.1,28.5,30.00,NE,45,1.1,1.1,90,0.00,,---,0.04,VWS V14.00,2013-03-07 23:13:00,
2013-03-07 18:18:00,31.1,28.5,30.00,NE,45,0.0,0.0,90,0.00,,---,0.04,VWS V14.00,2013-03-07 23:18:00,
2013-03-07 18:23:00,31.1,28.5,30.00,NNE,22,0.0,2.5,90,0.00,,---,0.04,VWS V14.00,2013-03-07 23:23:00,
2013-03-07 18:28:00,31.1,28.5,30.00,NNW,338,2.2,2.2,90,0.00,,---,0.04,VWS V14.00,2013-03-07 23:28:00,
2013-03-07 18:33:00,31.1,28.5,30.00,NE,45,2.2,2.2,90,0.00,,---,0.04,VWS V14.00,2013-03-07 23:33:00,
2013-03-07 18:38:00,31.1,28.5,30.00,NNE,22,0.0,0.0,90,0.00,,---,0.04,VWS V14.00,2013-03-07 23:38:00,
2013-03-07 18:43:00,31.1,28.5,30.00,WSW,248,1.3,1.3,90,0.00,,---,0.04,VWS V14.00,2013-03-07 23:43:00,
2013-03-07 18:48:00,31.1,28.8,30.00,ENE,68,1.3,2.0,91,0.00,,---,0.04,VWS V14.00,2013-03-07 23:48:00,
2013-03-07 18:53:00,31.1,28.8,30.00,SW,225,2.0,2.0,91,0.00,,---,0.04,VWS V14.00,2013-03-07 23:53:00,
2013-03-07 18:58:00,31.1,28.8,30.00,NE,45,0.0,1.1,91,0.00,,---,0.04,VWS V14.00,2013-03-07 23:58:00,
2013-03-07 19:03:00,31.1,28.8,30.00,SSE,158,0.0,1.1,91,0.00,,---,0.04,VWS V14.00,2013-03-08 00:03:00,
2013-03-07 19:08:00,31.1,28.8,30.00,NNE,22,0.0,1.6,91,0.00,,---,0.04,VWS V14.00,2013-03-08 00:08:00,
2013-03-07 19:13:00,31.1,28.8,30.00,North,0,1.6,1.6,91,0.00,,---,0.04,VWS V14.00,2013-03-08 00:13:00,
2013-03-07 19:18:00,31.1,28.8,30.00,North,0,1.1,1.6,91,0.00,,---,0.04,VWS V14.00,2013-03-08 00:18:00,
2013-03-07 19:23:00,31.1,28.8,30.00,North,0,0.0,0.0,91,0.00,,---,0.04,VWS V14.00,2013-03-08 00:23:00,
2013-03-07 19:28:00,31.1,28.8,30.00,North,0,1.6,1.6,91,0.00,,---,0.04,VWS V14.00,2013-03-08 00:28:00,
2013-03-07 19:33:00,31.3,29.0,30.00,North,0,1.3,1.3,91,0.00,,---,0.04,VWS V14.00,2013-03-08 00:33:00,
2013-03-07 19:38:00,31.3,29.2,30.00,North,0,1.6,1.6,92,0.00,,---,0.04,VWS V14.00,2013-03-08 00:38:00,
2013-03-07 19:43:00,31.3,29.2,30.00,North,0,1.3,2.5,92,0.00,,---,0.04,VWS V14.00,2013-03-08 00:43:00,
2013-03-07 19:48:00,31.3,29.2,30.00,North,0,0.0,0.9,92,0.00,,---,0.04,VWS V14.00,2013-03-08 00:48:00,
2013-03-07 19:53:00,31.3,29.2,29.97,North,0,0.0,0.0,92,0.00,,---,0.04,VWS V14.00,2013-03-08 00:53:00,
2013-03-07 19:58:00,31.5,29.7,29.97,North,0,2.7,2.7,93,0.00,,---,0.04,VWS V14.00,2013-03-08 00:58:00,
2013-03-07 20:03:00,31.5,29.7,29.97,North,0,0.9,2.9,93,0.00,,---,0.04,VWS V14.00,2013-03-08 01:03:00,
2013-03-07 20:08:00,31.5,29.7,30.00,North,0,1.1,1.1,93,0.00,,---,0.04,VWS V14.00,2013-03-08 01:08:00,
2013-03-07 20:13:00,31.5,29.7,30.00,North,0,1.1,1.3,93,0.00,,---,0.04,VWS V14.00,2013-03-08 01:13:00,
2013-03-07 20:18:00,31.5,29.7,30.00,North,0,0.9,1.3,93,0.00,,---,0.04,VWS V14.00,2013-03-08 01:18:00,
2013-03-07 20:23:00,31.5,29.9,30.00,North,0,0.0,0.0,94,0.00,,---,0.04,VWS V14.00,2013-03-08 01:23:00,
2013-03-07 20:28:00,31.5,29.9,30.00,North,0,0.0,2.0,94,0.00,,---,0.04,VWS V14.00,2013-03-08 01:28:00,
2013-03-07 20:33:00,31.5,29.9,30.00,North,0,0.0,1.3,94,0.00,,---,0.04,VWS V14.00,2013-03-08 01:33:00,
2013-03-07 20:38:00,31.5,29.9,30.00,North,0,0.0,1.3,94,0.00,,---,0.04,VWS V14.00,2013-03-08 01:38:00,
2013-03-07 20:43:00,31.6,30.1,30.00,North,0,1.3,1.3,94,0.00,,---,0.04,VWS V14.00,2013-03-08 01:43:00,
2013-03-07 20:48:00,31.6,30.1,30.00,North,0,0.0,1.1,94,0.00,,---,0.04,VWS V14.00,2013-03-08 01:48:00,
2013-03-07 20:53:00,31.6,30.1,30.00,North,0,0.0,1.1,94,0.00,,---,0.04,VWS V14.00,2013-03-08 01:53:00,
2013-03-07 20:58:00,31.6,30.1,30.00,North,0,1.6,1.6,94,0.00,,---,0.04,VWS V14.00,2013-03-08 01:58:00,
2013-03-07 21:03:00,31.6,30.4,30.00,North,0,0.9,1.6,95,0.00,,---,0.04,VWS V14.00,2013-03-08 02:03:00,
2013-03-07 21:08:00,31.6,30.4,30.00,North,0,0.0,1.1,95,0.00,,---,0.04,VWS V14.00,2013-03-08 02:08:00,
2013-03-07 21:13:00,31.6,30.4,30.00,North,0,0.0,0.9,95,0.00,,---,0.04,VWS V14.00,2013-03-08 02:13:00,
2013-03-07 21:18:00,31.6,30.4,30.00,North,0,0.0,0.9,95,0.00,,---,0.04,VWS V14.00,2013-03-08 02:18:00,
2013-03-07 21:23:00,31.6,30.4,30.00,North,0,1.1,1.6,95,0.00,,---,0.04,VWS V14.00,2013-03-08 02:23:00,
2013-03-07 21:28:00,31.6,30.4,30.00,North,0,0.0,1.6,95,0.00,,---,0.04,VWS V14.00,2013-03-08 02:28:00,
2013-03-07 21:33:00,31.6,30.4,30.00,North,0,0.0,0.9,95,0.00,,---,0.04,VWS V14.00,2013-03-08 02:33:00,
2013-03-07 21:38:00,31.6,30.4,29.97,North,0,0.0,0.0,95,0.00,,---,0.04,VWS V14.00,2013-03-08 02:38:00,
2013-03-07 21:43:00,31.6,30.4,29.97,North,0,0.0,1.3,95,0.00,,---,0.04,VWS V14.00,2013-03-08 02:43:00,
2013-03-07 21:48:00,31.5,30.2,29.97,North,0,0.0,0.0,95,0.00,,---,0.04,VWS V14.00,2013-03-08 02:48:00,
2013-03-07 21:53:00,31.5,30.2,29.97,North,0,0.0,0.0,95,0.00,,---,0.04,VWS V14.00,2013-03-08 02:53:00,
2013-03-07 21:58:00,31.5,30.2,29.97,North,0,0.0,0.9,95,0.00,,---,0.04,VWS V14.00,2013-03-08 02:58:00,
2013-03-07 22:03:00,31.5,30.2,29.97,North,0,0.0,1.1,95,0.00,,---,0.04,VWS V14.00,2013-03-08 03:03:00,
2013-03-07 22:08:00,31.5,30.2,29.97,North,0,0.0,0.9,95,0.00,,---,0.04,VWS V14.00,2013-03-08 03:08:00,
2013-03-07 22:13:00,31.5,30.2,29.97,North,0,0.0,1.1,95,0.00,,---,0.04,VWS V14.00,2013-03-08 03:13:00,
2013-03-07 22:18:00,31.3,30.0,29.97,North,0,0.0,0.0,95,0.00,,---,0.04,VWS V14.00,2013-03-08 03:18:00,
2013-03-07 22:23:00,31.3,30.0,29.97,North,0,0.0,0.0,95,0.00,,---,0.04,VWS V14.00,2013-03-08 03:23:00,
2013-03-07 22:28:00,31.3,29.8,29.97,North,0,1.3,1.3,94,0.00,,---,0.04,VWS V14.00,2013-03-08 03:28:00,
2013-03-07 22:33:00,31.3,29.8,29.97,North,0,0.0,0.0,94,0.00,,---,0.04,VWS V14.00,2013-03-08 03:33:00,
2013-03-07 22:38:00,31.3,30.0,29.97,North,0,0.0,0.0,95,0.00,,---,0.04,VWS V14.00,2013-03-08 03:38:00,
2013-03-07 22:43:00,31.3,30.0,29.97,North,0,1.1,1.3,95,0.00,,---,0.04,VWS V14.00,2013-03-08 03:43:00,
2013-03-07 22:48:00,31.1,29.8,29.97,North,0,0.0,0.0,95,0.00,,---,0.04,VWS V14.00,2013-03-08 03:48:00,
2013-03-07 22:53:00,31.1,29.6,29.97,North,0,0.0,1.6,94,0.00,,---,0.04,VWS V14.00,2013-03-08 03:53:00,
2013-03-07 22:58:00,30.9,29.4,29.97,North,0,0.0,0.0,94,0.00,,---,0.04,VWS V14.00,2013-03-08 03:58:00,
2013-03-07 23:03:00,30.7,29.2,29.97,North,0,0.0,1.6,94,0.00,,---,0.04,VWS V14.00,2013-03-08 04:03:00,
2013-03-07 23:08:00,30.7,29.2,29.97,North,0,0.0,0.0,94,0.00,,---,0.04,VWS V14.00,2013-03-08 04:08:00,
2013-03-07 23:13:00,30.6,29.0,29.97,North,0,0.0,0.0,94,0.00,,---,0.04,VWS V14.00,2013-03-08 04:13:00,
2013-03-07 23:18:00,30.6,29.0,29.97,North,0,0.0,0.0,94,0.00,,---,0.04,VWS V14.00,2013-03-08 04:18:00,
2013-03-07 23:23:00,30.6,29.0,29.97,North,0,0.0,0.0,94,0.00,,---,0.04,VWS V14.00,2013-03-08 04:23:00,
2013-03-07 23:28:00,30.6,29.3,29.97,North,0,0.0,0.0,95,0.00,,---,0.04,VWS V14.00,2013-03-08 04:28:00,
2013-03-07 23:33:00,30.7,29.5,29.97,North,0,1.3,1.3,95,0.00,,---,0.04,VWS V14.00,2013-03-08 04:33:00,
2013-03-07 23:38:00,30.7,29.5,29.97,North,0,3.6,3.6,95,0.00,,---,0.04,VWS V14.00,2013-03-08 04:38:00,
2013-03-07 23:43:00,30.7,29.5,29.97,North,0,1.1,2.5,95,0.00,,---,0.04,VWS V14.00,2013-03-08 04:43:00,
2013-03-07 23:48:00,30.7,29.5,29.97,North,0,0.0,2.0,95,0.00,,---,0.04,VWS V14.00,2013-03-08 04:48:00,
2013-03-07 23:53:00,30.7,29.5,29.97,North,0,1.1,2.5,95,0.00,,---,0.04,VWS V14.00,2013-03-08 04:53:00,
2013-03-07 23:58:00,30.7,29.5,29.97,North,0,0.0,0.0,95,0.00,,---,0.04,VWS V14.00,2013-03-08 04:58:00,